Location: Ash Swamp
(41.5170°N, 74.6157°W)
Time: 06:29:45
(UTC+00:00)

Cosmos 2082 Rocket - Pass Details

Date: 14 July 2020
Orbit: 833 x 853 km, 71.0° (Epoch: 04 August)

Event Time Altitude Azimuth Distance (km) Brightness Sun altitude
Exits shadow 05:46:19 12° 111° (ESE) 2,312 4.4 -26.1°
Maximum altitude 05:47:36 13° 97° (E) 2,254 4.4 -26.1°
Drops below altitude 10° 05:50:10 10° 70° (ENE) 2,485 5.0 -26.0°
Sets 05:53:59 0° 44° (NE) 3,425 6.3 -25.8°
